Tracking 29790 objects as of 12-Oct-2024
HD Live streaming from Space Station
objects crossing your sky now

DELTA 1 R/B

Track DELTA 1 R/B now!
10-day predictions


NORAD ID: 3670
Int'l Code: 1969-009B
Perigee: 581.4 km
Apogee: 3,300.0 km
Inclination: 88.5 °
Period: 125.7 minutes
Semi major axis: 8311 km
RCS: 0.5955 m2 (medium)
Launch date: January 30, 1969
Source: United States (US)
Launch site: AIR FORCE WESTERN TEST RANGE (AFWTR)

Note: This is a ROCKET BODY
Your satellite tracking list
Your tracking list is empty




NASA's NSSDC Master Catalog

Two Line Element Set (TLE):
1  3670U 69009B   24285.83336454  .00002137  00000-0  14455-2 0  9991
2  3670  88.4538 174.9784 1635410 118.5098 259.0312 11.45701862309296
Source of the keplerian elements: AFSPC